{"data":{"norad_id":62177,"epoch":"2026-05-24T22:12:33.722784Z","epoch_age_seconds":81804,"freshness":"FRESH","line1":"1 62177U 24225Q   26144.92539031  .00003939  00000+0  33770-3 0  9993","line2":"2 62177  70.0021 332.2641 0003011 268.7930  91.2884 14.98335670 81294","mean_motion":14.9833567,"eccentricity":0.0003011,"inclination_deg":70.0021,"raan_deg":332.2641,"arg_perigee_deg":268.793,"mean_anomaly_deg":91.2884,"bstar":0.0003377,"rev_number":8129,"period_min":96.106635437705,"perigee_km":569.94565919244,"apogee_km":574.13105479242,"semimajor_km":6950.1753569924,"source":"CELESTRAK","updated_at":"2026-05-25T13:38:19.603510Z"}}